Вернуться в каталог

DELTA 2 R/B

АктивенUNKNOWN
NORAD 21048·ROCKET BODY·🇺🇸 United States

Запущен Jan 8, 1991 с Cape Canaveral Space Force Station

Loading…

Ближайшие Пролёты (ближайшие 24 часа)

TLE

СвежийSource: Space-Track

Эпоха: Sep 14, 2026, 12:51 UTC

1 21048U 91001B   26257.53592851  .00000243  00000-0  16607-3 0  9998
2 21048  18.4539 223.5431 1188034   1.2165 359.0757 11.85471094547111

Отслеживайте DELTA 2 R/B в реальном времени с AllMySat

Download on the App Store